Location: Unspecified
(55.7024°N, 37.6611°E)
Time: 19:23:23
(UTC+03:00)

Tiros 1 - Visible Passes

Search period start: 23 June 2025 00:00
Search period end: 03 July 2025 00:00
Orbit: 620 x 651 km, 48.4° (Epoch: 23 June)

Date Brightness Start Highest point End Pass type
(mag) Time Alt. Az. Time Alt. Az. Time Alt. Az.
30 Jun 9.2 02:00:48 10° S 02:03:02 13° SE 02:05:14 10° ESE visible
01 Jul 8.7 02:21:21 10° SSW 02:24:44 20° SSE 02:28:07 10° ESE visible
02 Jul 9.1 01:04:41 11° SSE 01:05:42 12° SE 01:07:18 10° ESE visible
02 Jul 8.3 02:42:37 10° SW 02:46:33 26° SSE 02:50:28 10° ESE visible
